STARLINK-5169, 54060

Orbit data source: Space-Track

STARLINK-5169, 54060 is a payload satellite owned by SpaceX/Seattle (US) in LEO that was launched on Thu, 20 Oct 2022 UTC via an FALCON 9 launch vehicle from the Air Force Eastern Test Range (AFETR). Payload-class satellites include a variety of spacecraft equipped with specific instruments for various scientific and technological missions. These include communications satellites like Starlink; space stations such as the ISS; scientific satellites like the Hubble; Earth observation satellites from companies like Planet Labs, Umbra, and HawkEye 360; GPS; miniature CubeSats for education and research; and military/defense satellites.

Loading next visibility...
Identifier
54060, 2022-136K
Orbit
LEO
Country
Flag of USUS
Related business
Manufacturer
SpaceX/Seattle
Mission
Operational Commercial Communications
Bus & Motor
STARLINK, Unknown motor
Mass
305 kg wet, ~290 kg dry
Launch date (UTC)
2022-10-20 (3 years ago)
Launch vehicle
FALCON 9
Launch site
Air Force Eastern Test Range (AFETR)
Object type
Payload
Rocket body
Debris
Shape & HBR
Box + 1 Pan, 10.1 m
Radar Cross Section
13.562 m², Large (>1 m²)

Expand to show TLE details & history
Last TLE update: 10 hours ago

TLE from 10 hours ago
0 STARLINK-5169
1 54060U 22136K   25303.88640579  .00000610  00000-0  56414-4 0  9990
2 54060  53.2163 176.4868 0001462  91.4272 268.6888 15.08839589167674
Epoch: 2025-10-30T21:16Z
TLE epoch observation values (Epoch: 2025-10-30T21:16:25.460Z)
Latitude
0.00002°
Longitude
177.94197°
Altitude
540.665 km
Speed
7.593 km/s
True Right ascension
11h 45m 56s
True Declination
0° 00' 00"
Sunlit
Object was in daylight at epoch
Visualization orbit readout
Latitude
Unknown
Longitude
Unknown
Altitude
Unknown
Speed
Unknown
Apparent Right ascension
Unknown
Apparent Declination
Unknown
Sunlit
N/A
Visualization observer readout
Local Sidereal Time
02:31:10
Azimuth
Unknown
Elevation
Unknown
Doppler factor
Unknown
Orbital elements
Apogee altitude
541.001 km
Perigee altitude
538.978 km
Semi-major axis
6,918.127 km
Eccentricity
0.00015
Inclination
53.2163°
RAAN
176.4868°
Arg. of periapsis
91.4272°
True anomaly
268.67205°
Mean anomaly
268.6888°
Eccentric anomaly
268.68043°
Mean motion
3.7719 °/min
Orbital period
95.44 mins
BSTAR
0.000056414
Loading maneuver chart data...
Computing Atmospheric mass density...
Loading historical data...
Loading historical data...
Loading historical data...
Loading historical data...
Loading historical data...
Loading historical data...
Loading historical data...

Documentation

Showing up to 5 results
|